Location: Grand Rapids
(42.9630°N, 85.6680°W)
Time: 01:37:55
(UTC-04:00)

S-56A Canister/Altair - Pass Details

Date: 30 May 2024
Orbit: 637 x 2489 km, 38.9° (Epoch: 21 June)

Event Time Altitude Azimuth Distance (km) Brightness Sun altitude
Rises 04:25:59 0° 220° (SW) 6,065 - -14.8°
Reaches altitude 10° 04:30:09 10° 214° (SW) 5,124 - -14.3°
Exits shadow 04:32:16 16° 210° (SSW) 4,666 10.9 -14.1°
Maximum altitude 04:43:52 44° 149° (SSE) 3,010 10.4 -12.6°
Drops below altitude 10° 04:55:38 10° 83° (E) 4,436 12.2 -11.1°
Sets 04:58:56 0° 77° (ENE) 5,214 12.9 -10.7°
